User: anonymous   Login
Location: Unspecified
(0.0000°N, 0.0000°E)
Time: 22:10:52
(UTC+00:00)
Language:

ASTRA 1KR - Orbit

View from above orbital plane
View from above orbital plane
View from above satellite
View from above satellite

Ground track
Ground track

The orbit data is extracted from the following two-line orbital elements,

1 29055U 06012A   15 86.17841918  .00000000  00000-0  10000-3 0  9993
2 29055 000.0529 289.9912 0003788 008.2411 329.5143 01.00272798 32661
Epoch (UTC): 27 March 2015 04:16:55
Eccentricity: 0.0003788
inclination: 0.0529°
perigee height: 35770 km
apogee height: 35802 km
right ascension of ascending node: 289.9912°
argument of perigee: 8.2411°
revolutions per day: 1.00272798
mean anomaly at epoch: 329.5143°
orbit number at epoch: 3266

The dashed part of the orbit path shows where the satellite is in the earth's shadow,  

DLR